[[{"header":{"parameterUnit":"m.s-1","parameterCategory":1,"la1":30.2991,"la2":30.254,"lo1":-89.0895,"lo2":-89.0444,"dy":0.0017,"dx":0.0017,"nx":28,"ny":28,"refTime":"2023-11-13T09:00:00:Z","depth":0,"parameterNumber":2,"parameterNumberName":"U-component_of_WINDS"},"data":[0,0,0,0,0,0,0,0,0,0,0,0,0,0,0,0,0,0,0,0,0,0,0,0,0,0,0,0,0,0,0,0,0,0,0,0,0,0,0,0,0,0,0,0,0,0,0,0,0,0,0,0,0,0,0,0,0,0,-12.0268,-12.0269,0,-12.0344,-12.0345,-12.0345,-12.0109,-12.0102,-12.0095,-12.0088,-12.0163,-12.0171,-12.018,0,0,0,0,0,0,0,0,0,0,0,0,0,-11.9918,-11.9925,-12.0268,-12.0269,-12.027,-12.0344,-12.0345,-12.0346,-12.011,-12.0101,-12.0093,-12.0084,-12.016,-12.017,-12.0181,0,0,0,0,0,0,0,0,0,0,0,0,0,-12.0039,-11.9928,-12.0268,-12.0162,-12.0153,-12.0344,-12.0345,-12.0346,-12.0112,-12.0101,-12.009,-12.008,-12.0156,-12.0169,-12.0182,-12.0478,0,0,-12.0222,-12.0228,0,0,0,0,0,0,0,0,-12.0033,-12.0053,-12.0176,-12.0169,-12.016,-12.0206,-12.0248,-12.039,-12.0115,-12.0128,-12.0088,-12.0075,-12.0186,-12.0196,-12.0233,-12.0482,-12.0485,-12.0223,-12.0231,-12.0237,-12.024,0,0,0,0,0,0,0,-12.0025,-12.0048,-12.0298,-12.0178,-12.0168,-12.0109,-12.0115,-12.0274,-12.0216,-12.0125,-12.0109,-12.0121,-12.0179,-12.0221,-12.0233,-12.0486,-12.0223,-12.0234,-12.0242,-12.0247,-12.098,-12.0991,0,0,0,0,0,0,-12.003,-12.0042,-12.0295,-12.03,-12.0069,-12.0124,-12.013,-12.0202,-12.0214,-12.0205,-12.013,-12.011,-12.0204,-12.0218,-12.0235,-12.058,-12.0236,-12.0249,-12.0256,-12.0968,-12.0982,-12.0995,0,0,0,0,0,0,-12.0024,-12.0055,-12.0292,-12.0167,-12.0192,-12.0142,-12.0224,-12.0209,-12.0251,-12.0217,-12.0205,-12.0184,-12.0196,-12.0217,-12.0419,-12.0579,-12.0255,-12.0266,-12.0955,-12.0973,-12.0989,-12.1275,0,0,0,0,0,0,-12.0015,-12.0054,-12.0167,-12.0171,-12.02,-12.0477,-12.0234,-12.0218,-12.0274,-12.0248,-12.0265,-12.0257,-12.019,-12.0401,-12.0432,-12.0592,-12.0277,-12.094,-12.0963,-12.0983,-12.1251,-12.13,-12.1342,0,0,0,0,0,-12.0003,-12.0244,-12.0174,-12.0205,-12.034,-12.0487,-12.0503,-12.0421,-12.0289,-12.04,-12.0379,-12.0256,-12.0559,-12.0424,-12.0457,-12.0623,-12.0929,-12.0956,-12.0981,-12.123,-12.129,-12.1341,0,0,0,0,0,0,-12.0258,-12.0243,-12.0164,-12.0414,-12.0454,-12.0446,-12.0584,-12.0488,-12.0565,-12.0537,-12.0432,-12.0438,-12.0659,-12.0661,-12.0512,-12.0909,-12.0721,-12.0755,-12.0899,-12.0955,-12.1,-12.0993,-12.0287,0,0,0,0,0,-12.0344,-12.0466,-12.0445,-12.0667,-12.0691,-12.0636,-12.0697,-12.0631,-12.0667,-12.0682,-12.0675,-12.0714,-12.0817,-12.0887,-12.098,-12.1252,-12.125,-12.1382,-12.1428,-12.1466,-12.1495,-12.1636,-12.1694,-12.1081,-12.1081,-12.108,0,0,-12.0521,-12.0528,-12.0611,-12.0719,-12.0741,-12.0868,-12.0651,-12.0795,-12.0887,-12.0703,-12.0893,-12.0891,-12.0927,-12.1165,-12.127,-12.1174,-12.1665,-12.1499,-12.1529,-12.1538,-12.1669,-12.1727,-12.1779,-12.1099,-12.1095,-12.1093,0,0,-12.0908,-12.0928,-12.1113,-12.1141,-12.1179,-12.1141,-12.1186,-12.1195,-12.1186,-12.1376,-12.124,-12.1349,-12.153,-12.1561,-12.16,-12.2003,-12.1892,-12.2037,-12.2273,-12.2412,-12.246,-12.2503,-12.2643,-12.2695,-12.2067,-12.2068,-12.2068,0,-12.1123,-12.1309,-12.1221,-12.1374,-12.1424,-12.1267,-12.1453,-12.1485,-12.1552,-12.159,-12.1483,-12.1706,-12.172,-12.1962,-12.206,-12.2099,-12.2146,-12.2031,-12.2461,-12.2502,-12.254,-12.2673,-12.2726,-12.2085,-12.2083,-12.2081,-12.2079,0,-12.157,-12.1702,-12.1848,-12.1916,-12.1984,-12.2154,-12.209,-12.217,-12.21,-12.2073,-12.2268,-12.228,-12.2372,-12.2426,-12.2358,-12.2659,-12.2598,-12.2479,-12.2286,-12.2617,-12.274,-12.279,-12.2109,-12.2103,-12.2098,-12.2094,0,0,-12.2114,-12.2135,-12.2189,-12.2218,-12.225,-12.2349,-12.2513,-12.2604,-12.2672,-12.2726,-12.2857,-12.3016,-12.2905,-12.295,-12.2886,-12.3009,-12.3323,-12.2873,-12.2872,-12.2953,-12.3652,-12.3738,-12.3798,-12.3253,-12.3262,-12.327,-12.3647,0,-12.2492,-12.277,-12.2697,-12.2973,-12.3092,-12.2946,-12.3088,-12.3122,-12.3103,-12.3201,-12.3178,-12.3291,-12.3139,-12.3165,-12.3281,-12.3261,-12.3461,-12.3233,-12.3371,-12.3377,-12.3361,-12.3863,-12.3954,-12.431,-12.3695,-12.3703,-12.3709,0,-12.2968,-12.304,-12.3329,-12.3341,-12.3388,-12.3517,-12.3594,-12.3691,-12.3727,-12.3704,-12.3757,-12.3668,-12.3827,-12.3638,-12.3855,-12.3701,-12.3754,-12.3754,-12.3766,-12.3771,-12.3559,-12.3877,-12.4422,-12.4473,-12.3784,-12.3778,-12.3773,0,-12.3331,-12.3501,-12.3695,-12.3725,-12.3745,-12.3838,-12.3851,-12.3877,-12.3937,-12.4005,-12.4042,-12.413,-12.4176,-12.4245,-12.4181,-12.405,-12.4408,-12.4214,-12.439,-12.4392,-12.4467,-12.4462,-12.5023,-12.4511,-12.451,-12.4509,-12.4508,0,-12.3757,-12.3938,-12.3858,-12.3977,-12.4176,-12.4091,-12.429,-12.4286,-12.4311,-12.4426,-12.4307,-12.4417,-12.4328,-12.4431,-12.4383,-12.4568,-12.4591,-12.4576,-12.4559,-12.4583,-12.4585,-12.4612,-12.4584,-12.4523,-12.452,-12.4517,-12.4515,0,-12.4193,-12.4147,-12.4348,-12.4352,-12.4358,-12.4504,-12.4506,-12.4616,-12.4589,-12.4736,-12.4766,-12.4724,-12.4839,-12.4784,-12.4904,-12.4871,-12.5109,-12.5062,-12.5096,-12.5082,-12.526,-12.5243,-12.5854,-12.5928,-12.5374,-12.5379,-12.5384,0,-12.4465,-12.4601,-12.4621,-12.469,-12.4711,-12.4824,-12.4884,-12.4807,-12.4875,-12.4928,-12.5032,-12.5137,-12.5215,-12.5406,-12.5385,-12.5476,-12.5427,-12.5636,-12.544,-12.5459,-12.5425,-12.5416,-12.5427,-12.5673,-12.568,-12.5685,-12.5689,0,-12.4952,-12.4923,-12.5015,-12.5101,-12.5178,-12.5241,-12.5294,-12.5358,-12.5282,-12.5365,-12.5481,-12.5543,-12.5666,-12.5771,-12.5851,-12.5862,-12.5763,-12.5752,-12.5797,-12.582,-12.5832,-12.5823,-12.5198,-12.5737,-12.5732,-12.5729,-12.5726,-12.5724,-12.531,-12.5424,-12.5456,-12.5563,-12.5596,-12.5649,-12.5751,-12.5739,-12.5835,-12.5929,-12.5879,-12.6014,-12.6047,-12.6144,-12.617,-12.6274,-12.6191,-12.6257,-12.6273,-12.6289,-12.6311,-12.5821,-12.6289,-12.6288,-12.6286,-12.6285,-12.6284,0,-12.5786,-12.58,-12.59,-12.5979,-12.6064,-12.5967,-12.6021,-12.6098,-12.6219,-12.6259,-12.634,-12.6474,-12.6576,-12.6565,-12.6658,-12.6743,-12.67,-12.677,-12.6759,-12.6763,-12.6382,-12.6331,-12.6803,-12.6803,-12.6803,-12.6803,-12.6802,-12.6802,-12.6043,-12.623,-12.6206,-12.6407,-12.6419,-12.6551,-12.6591,-12.6639,-12.667,-12.6825,-12.6909,-12.6903,-12.6922,-12.7016,-12.7105,-12.7099,-12.7136,-12.7223,-12.72,-12.6842,-12.679,-12.6741,-12.6693,-12.7233,-12.7233,-12.7571,-12.7575,-12.7577]},{"header":{"parameterUnit":"m.s-1","parameterCategory":1,"la1":30.2991,"la2":30.254,"lo1":-89.0895,"lo2":-89.0444,"dy":0.0017,"dx":0.0017,"nx":28,"ny":28,"refTime":"2023-11-13T09:00:00:Z","depth":0,"parameterNumber":3,"parameterNumberName":"V-component_of_WINDS"},"data":[0,0,0,0,0,0,0,0,0,0,0,0,0,0,0,0,0,0,0,0,0,0,0,0,0,0,0,0,0,0,0,0,0,0,0,0,0,0,0,0,0,0,0,0,0,0,0,0,0,0,0,0,0,0,0,0,0,0,0.5316,0.5316,0,0.5349,0.5349,0.535,0.5316,0.5315,0.5313,0.5312,0.5347,0.5349,0.5351,0,0,0,0,0,0,0,0,0,0,0,0,0,0.5227,0.5229,0.5316,0.5316,0.5317,0.5349,0.5349,0.535,0.5316,0.5315,0.5313,0.5312,0.5346,0.5349,0.5351,0,0,0,0,0,0,0,0,0,0,0,0,0,0.5263,0.5229,0.5316,0.5304,0.5303,0.5349,0.5349,0.535,0.5317,0.5315,0.5313,0.5311,0.5345,0.5349,0.5352,0.5411,0,0,0.5362,0.5363,0,0,0,0,0,0,0,0,0.5261,0.5267,0.5305,0.5305,0.5304,0.5326,0.5331,0.537,0.5317,0.5312,0.5312,0.531,0.5342,0.5345,0.5356,0.5413,0.5414,0.5362,0.5364,0.5365,0.5366,0,0,0,0,0,0,0,0.5259,0.5265,0.5329,0.5306,0.5305,0.5298,0.5301,0.5338,0.5337,0.5312,0.5309,0.5314,0.5341,0.5353,0.5356,0.5415,0.5362,0.5365,0.5367,0.5368,0.5525,0.5527,0,0,0,0,0,0,0.5257,0.5263,0.5328,0.533,0.5277,0.5301,0.5304,0.5321,0.5337,0.5337,0.5315,0.5312,0.5348,0.5353,0.5357,0.543,0.5365,0.5368,0.537,0.5523,0.5526,0.5528,0,0,0,0,0,0,0.5255,0.5263,0.5326,0.5296,0.5303,0.5305,0.5324,0.5323,0.5334,0.5339,0.5339,0.5327,0.5347,0.5353,0.5399,0.5431,0.537,0.5373,0.552,0.5524,0.5527,0.5574,0,0,0,0,0,0,0.5253,0.5263,0.5285,0.5297,0.5305,0.5366,0.5326,0.5325,0.534,0.5336,0.5351,0.5351,0.5346,0.5394,0.5402,0.5434,0.5375,0.5517,0.5522,0.5526,0.557,0.5579,0.5587,0,0,0,0,0,0.525,0.5296,0.5286,0.5294,0.5332,0.5368,0.5373,0.5366,0.5342,0.5365,0.5369,0.5351,0.5426,0.5399,0.5407,0.5441,0.5515,0.5521,0.5525,0.5566,0.5577,0.5586,0,0,0,0,0,0,0.5288,0.5297,0.5286,0.5337,0.5352,0.5363,0.5391,0.5377,0.5399,0.5394,0.5385,0.5388,0.5437,0.5443,0.5413,0.5501,0.5467,0.5474,0.5495,0.5505,0.5514,0.5512,0.5378,0,0,0,0,0,0.5302,0.533,0.5337,0.5382,0.539,0.5389,0.5405,0.5398,0.5413,0.5419,0.5426,0.5442,0.5469,0.5487,0.5513,0.557,0.5575,0.5598,0.5606,0.5613,0.562,0.5653,0.5665,0.5545,0.5545,0.5544,0,0,0.5332,0.5341,0.5359,0.539,0.54,0.5431,0.5395,0.5427,0.545,0.5424,0.5468,0.5474,0.5491,0.5544,0.5568,0.5551,0.5654,0.562,0.5625,0.5628,0.566,0.5671,0.5681,0.5548,0.5547,0.5547,0,0,0.5402,0.5411,0.545,0.5462,0.5479,0.5478,0.5488,0.5501,0.5504,0.5548,0.553,0.5557,0.5604,0.5618,0.5631,0.5709,0.5694,0.5718,0.5761,0.5794,0.5804,0.5812,0.5842,0.5853,0.5724,0.5724,0.5724,0,0.5437,0.5481,0.5472,0.5507,0.5522,0.55,0.5541,0.5553,0.5578,0.5589,0.557,0.563,0.564,0.5697,0.5716,0.5727,0.5739,0.5716,0.5803,0.5811,0.5819,0.5848,0.5859,0.5727,0.5727,0.5726,0.5726,0,0.5525,0.5556,0.5586,0.5611,0.5629,0.5667,0.5665,0.5685,0.5677,0.5679,0.5726,0.5737,0.5766,0.5778,0.577,0.5835,0.5824,0.5804,0.577,0.5834,0.5861,0.5871,0.5731,0.573,0.5729,0.5728,0,0,0.5619,0.564,0.5651,0.5663,0.5681,0.5706,0.5744,0.5772,0.579,0.5808,0.5841,0.5882,0.5864,0.5879,0.5873,0.5902,0.5966,0.5878,0.5879,0.5896,0.6041,0.6057,0.607,0.5956,0.5958,0.5959,0.604,0,0.5692,0.5757,0.5751,0.5813,0.5843,0.5824,0.5857,0.5872,0.5876,0.5903,0.5906,0.5937,0.591,0.5919,0.5947,0.5952,0.5995,0.5946,0.5988,0.5989,0.5986,0.6083,0.61,0.6175,0.605,0.6052,0.6053,0,0.5784,0.5807,0.5872,0.5888,0.5901,0.593,0.5957,0.5982,0.6,0.6001,0.6019,0.6009,0.6048,0.6013,0.6069,0.6036,0.6052,0.6058,0.6061,0.6066,0.6026,0.6092,0.6199,0.6211,0.6069,0.6068,0.6067,0,0.5849,0.5896,0.5942,0.5952,0.5971,0.5993,0.6002,0.6018,0.6036,0.606,0.6072,0.6099,0.6115,0.6137,0.6135,0.6109,0.6193,0.6156,0.6196,0.6196,0.6215,0.6214,0.6328,0.6223,0.6223,0.6223,0.6223,0,0.5932,0.5973,0.5971,0.6,0.6047,0.604,0.6086,0.6093,0.6108,0.6138,0.6123,0.6152,0.6146,0.6176,0.6175,0.6223,0.6229,0.6232,0.6231,0.6234,0.6234,0.6246,0.6242,0.6226,0.6225,0.6225,0.6224,0,0.6012,0.6012,0.6062,0.6076,0.6081,0.6115,0.6128,0.6156,0.6158,0.6197,0.6206,0.6211,0.6245,0.6245,0.6283,0.6283,0.6342,0.6335,0.6336,0.6335,0.6376,0.6373,0.6502,0.652,0.6402,0.6403,0.6404,0,0.6066,0.6097,0.6116,0.6135,0.6146,0.6177,0.6196,0.6191,0.6211,0.6235,0.6261,0.6293,0.632,0.6376,0.6383,0.6413,0.6408,0.6451,0.6412,0.6415,0.6411,0.641,0.6414,0.6459,0.646,0.6461,0.6462,0,0.6161,0.616,0.6187,0.6216,0.6239,0.6261,0.6281,0.6298,0.6295,0.6319,0.6354,0.6375,0.6415,0.6449,0.6479,0.6489,0.6476,0.6474,0.6485,0.649,0.649,0.6493,0.6359,0.6471,0.6471,0.647,0.6469,0.6469,0.6231,0.626,0.6278,0.6309,0.6324,0.6344,0.6372,0.6378,0.6407,0.644,0.6435,0.6475,0.6495,0.6533,0.6546,0.6578,0.6563,0.6579,0.6583,0.6587,0.6593,0.6484,0.6583,0.6583,0.6583,0.6583,0.6582,0,0.6328,0.6339,0.6368,0.6398,0.6423,0.6408,0.6431,0.6453,0.6489,0.6507,0.6534,0.6576,0.6609,0.6619,0.6652,0.6675,0.6671,0.6684,0.6683,0.6687,0.6603,0.6592,0.6688,0.6688,0.6688,0.6688,0.6688,0.6688,0.6381,0.6429,0.6431,0.6487,0.6497,0.6536,0.6551,0.657,0.6585,0.6632,0.666,0.6666,0.6683,0.6717,0.6747,0.6749,0.6763,0.678,0.678,0.6702,0.6692,0.6682,0.6671,0.6782,0.6782,0.6861,0.6861,0.6862]}]]